EW3517 Weather Reports


time (UTC)temp
C
wind
direction
speed
KPH
gust
KPH
rain 1hr
cm
rain 24hr
cm
rain mn
cm
humidity
%
barometer
mb
20260506070104 10 28 0.0 0.0 0.00 0.00 0.00 73 1010.9
20260506061540 10 14 0.0 0.0 0.00 0.00 0.00 72 1011.0
20260506044544 10 40 0.0 0.0 0.00 0.00 0.00 70 1010.8
20260506043032 10 44 0.0 0.0 0.00 0.00 0.00 72 1010.9
20260506041530 10 11 0.0 0.0 0.00 0.00 0.00 72 1010.8
20260506040028 10 11 0.0 0.0 0.00 0.00 0.00 74 1010.7
20260506034528 10 17 0.0 0.0 0.00 0.00 0.00 76 1010.6
20260506033024 9 360 0.0 0.0 0.00 0.00 0.00 79 1010.2
20260506031525 10 360 0.0 0.0 0.00 0.00 0.00 80 1009.4
20260506030024 10 28 0.0 1.6 0.00 0.00 0.00 80 1009.6
20260506024531 10 5 0.0 0.0 0.00 0.00 0.00 81 1009.8
20260506023021 10 36 0.0 0.0 0.00 0.00 0.00 81 1010.0
20260506021519 10 23 0.0 1.6 0.00 0.00 0.00 82 1009.6
20260506020017 10 13 0.0 0.0 0.00 0.00 0.00 82 1009.3
20260506014515 10 11 0.0 0.0 0.00 0.00 0.00 81 1009.2
20260506013018 10 29 0.0 0.0 0.00 0.00 0.00 80 1009.0
20260506011512 10 38 0.0 0.0 0.00 0.00 0.00 80 1008.8
20260506010011 10 22 0.0 0.0 0.00 0.00 0.00 80 1008.5
20260506004505 10 5 0.0 0.0 0.00 0.00 0.00 79 1007.8
20260506003005 10 66 0.0 0.0 0.00 0.00 0.00 79 1007.7
20260506001503 10 321 0.0 0.0 0.00 0.00 0.00 78 1007.5
20260506000002 11 22 0.0 0.0 0.00 0.00 0.00 77 1007.4
20260505234618 11 346 0.0 0.0 0.00 0.00 0.00 75 1007.2
20260505233059 11 80 0.0 0.0 0.00 0.00 0.00 74 1007.8
20260505231559 11 35 0.0 0.0 0.00 0.00 0.00 74 1007.6
20260505230054 11 5 0.0 1.6 0.00 0.00 0.00 73 1006.8
20260505224551 11 355 0.0 0.0 0.00 0.00 0.00 73 1006.9
20260505223100 11 26 0.0 0.0 0.00 0.00 0.00 73 1006.9
20260505221559 11 209 0.0 0.0 0.00 0.00 0.00 73 1006.4
20260505220057 12 19 0.0 0.0 0.00 0.00 0.00 73 1006.6
20260505214602 12 109 0.0 0.0 0.00 0.00 0.00 72 1005.9
20260505213046 12 196 0.0 0.0 0.00 0.00 0.00 72 1005.8
20260505211543 12 18 0.0 0.0 0.00 0.00 0.00 72 1006.0
20260505210043 12 63 0.0 0.0 0.00 0.00 0.00 73 1005.2
20260505204541 12 5 0.0 0.0 0.00 0.00 0.00 73 1006.2
20260505203038 12 355 0.0 0.0 0.00 0.00 0.00 73 1005.7
20260505201536 12 51 0.0 0.0 0.00 0.00 0.00 74 1005.2
20260505200037 12 34 0.0 1.6 0.00 0.00 0.00 75 1005.3
20260505194535 12 23 0.0 0.0 0.00 0.00 0.00 76 1005.4
20260505193033 12 32 0.0 0.0 0.00 0.00 0.00 78 1005.1
20260505191531 12 77 0.0 0.0 0.00 0.00 0.00 79 1004.9
20260505190031 12 40 0.0 0.0 0.00 0.00 0.00 79 1005.0
20260505184527 13 5 0.0 0.0 0.00 0.00 0.00 79 1004.8
20260505183039 13 46 0.0 0.0 0.00 0.00 0.00 77 1004.8
20260505181522 13 53 0.0 0.0 0.00 0.00 0.00 77 1004.4
20260505180120 13 106 0.0 0.0 0.00 0.00 0.00 77 1004.2
20260505174516 13 31 0.0 0.0 0.00 0.00 0.00 79 1003.8
20260505173021 13 355 0.0 0.0 0.00 0.00 0.00 79 1003.6
20260505171513 13 27 0.0 0.0 0.00 0.00 0.00 80 1003.2
20260505170013 13 37 0.0 0.0 0.00 0.00 0.00 80 1003.2
20260505164510 13 5 0.0 0.0 0.00 0.00 0.00 82 1002.9
20260505163009 13 23 0.0 0.0 0.00 0.00 0.00 81 1002.3
20260505161503 14 24 0.0 0.0 0.00 0.00 0.00 81 1001.7
20260505160109 15 40 0.0 1.6 0.00 0.00 0.00 81 1001.1
20260505153052 16 12 0.0 1.6 0.00 0.00 0.00 81 1000.5
20260505151547 17 57 0.0 0.0 0.00 0.00 0.00 80 1000.0
20260505124525 20 79 0.0 0.0 0.00 0.00 0.00 81 997.7
20260505123023 20 33 0.0 0.0 0.00 0.00 0.00 80 997.5
20260505121524 20 14 0.0 0.0 0.00 0.00 0.00 79 997.3
20260505120019 21 14 0.0 0.0 0.00 0.00 0.00 77 997.2
20260505114515 21 14 0.0 0.0 0.00 0.00 0.00 76 996.9
20260505113013 21 14 0.0 0.0 0.00 0.00 0.00 74 996.4
20260505111511 22 239 0.0 0.0 0.00 0.00 0.00 73 995.8
20260505101513 22 240 0.0 0.0 0.00 0.00 0.00 73 995.0
20260505100007 22 67 0.0 0.0 0.00 0.00 0.00 73 994.9
20260505094517 22 304 0.0 0.0 0.00 0.00 0.00 73 994.8
20260505093006 22 186 0.0 0.0 0.00 0.00 0.00 73 994.8
20260505091506 22 33 0.0 0.0 0.00 0.00 0.00 73 994.8
20260505090001 22 90 0.0 0.0 0.00 0.00 0.00 73 994.9
20260505084500 22 288 0.0 1.6 0.00 0.00 0.00 73 995.1
20260505083100 22 309 0.0 1.6 0.00 0.00 0.00 73 995.2
20260505081558 22 15 0.0 0.0 0.00 0.00 0.00 73 995.4
20260505080105 22 156 0.0 0.0 0.00 0.00 0.00 73 995.5
20260505074555 22 320 0.0 1.6 0.00 0.00 0.00 73 995.6
20260505073055 22 20 0.0 0.0 0.00 0.00 0.00 73 995.7
20260505071551 22 209 0.0 0.0 0.00 0.00 0.00 73 995.9